Regional Weather Roundup
Issued by NWS

Home | Current Version | Previous Version | Graphics & Text | Print | Product List | Glossary On
Versions: 1 2 3 4 5 6 7 8 9 10 11 12 13 14 15 16 17 18 19 20 21 22 23 24 25 26 27 28 29 30 31 32 33 34 35 36 37 38 39 40 41 42 43 44 45 46 47 48 49 50
000
ASUS45 KCYS 050110
RWRWY

WYOMING REGIONAL WEATHER ROUNDUP
NATIONAL WEATHER SERVICE CHEYENNE WY
600 PM MST SUN DEC 04 2016

NOTE:  "FAIR" INDICATES FEW OR NO CLOUDS BELOW 12,000 FEET
WITH NO SIGNIFICANT WEATHER AND/OR OBSTRUCTIONS TO VISIBILITY.

WYZ001-050200-
YELLOWSTONE NATIONAL PARK

CITY           SKY/WX    TMP DP  RH WIND       PRES   REMARKS
LK YELLOWSTONE   N/A     24  22  91 W8G21     29.60F WCI  15
W YELLOWSTONE  NOT AVBL

$$
WYZ002>013-054>058-071-098>099-050200-
NORTHERN WYOMING

CITY           SKY/WX    TMP DP  RH WIND       PRES   REMARKS
JACKSON        CLOUDY    28  28 100 S23G29    29.69F WCI  14
CODY           NOT AVBL
GREYBULL       FAIR      33  18  53 CALM      29.57F
WORLAND        FAIR      29  20  69 CALM      29.57F
SHERIDAN       FAIR      35  19  52 S7        29.54F WCI  29
BUFFALO        FAIR      33  16  49 N6        29.54F WCI  28
GILLETTE       CLOUDY    32  21  64 S5        29.58F WCI  27
HULETT         FAIR      32  21  64 CALM      29.60F
NEWCASTLE      FAIR      36  21  55 E7        29.64F WCI  30

$$
WYZ014>020-022>026-101>103-050200-
CENTRAL WYOMING

CITY           SKY/WX    TMP DP  RH WIND       PRES   REMARKS
BIG PINEY      CLOUDY    28  22  78 W13       29.77F WCI  17
PINEDALE       CLOUDY    28  23  80 MISG      29.77F
DUBOIS         LGT SNOW  30  21  69 W24G38    29.59F WCI  16
LANDER         FAIR      37  22  54 MISG      29.62F
RIVERTON       FAIR      37  22  54 SW18      29.63F WCI  27
CASPER         FAIR      37  19  48 SW17      29.67S WCI  27
DOUGLAS        FAIR      41  20  43 W33G47    29.62F

$$
WYZ021-027>030-104>119-050200-
SOUTHERN WYOMING

CITY           SKY/WX    TMP DP  RH WIND       PRES   REMARKS
EVANSTON       CLOUDY    33  20  58 SW14G22   29.87F WCI  23
KEMMERER         N/A     32  21  64 SW18      29.84S WCI  20
FORT BRIDGER   MOCLDY    35  23  62 SW18G29   29.89F WCI  24
ROCK SPRINGS   FAIR      35  18  49 W28G35    29.82F WCI  22
DIXON          CLOUDY    36  16  43 S20G31    29.91F WCI  25
RAWLINS        FAIR      34  15  46 SW33G45   29.78F WCI  20
SARATOGA       CLOUDY    32  19  59 SE10      29.87S WCI  24
LARAMIE        MOCLDY    34  14  43 S18       29.79S WCI  23
CHEYENNE       FAIR      41  14  33 W32G47    29.72R
TORRINGTON     FAIR      45  18  34 W16G24    29.68F
PINE BLUFFS    FAIR      37  19  48 W10       29.75R WCI  30

$$



USA.gov is the U.S. government's official web portal to all federal, state and local government web resources and services.